QPF
0.04 0.05 0.04 0.02 0.02 0.02 0.02 0.02 0.01 0.01 0.01 0.01 0.01 0.00 0.00 0.00 0.00 0.00 0.00 0.00 0.00 0.00 0.00 0.00 0.00 0.00 0.00 0.00 0.00 0.00 0.00 0.00 0.00 0.00 0.00 0.00 0.00 0.00 0.00 0.00 0.00 0.00 0.00 0.00
0.05 0.04 0.01 0.01 0.01 0.02 0.02 0.03 0.01 0.01 0.00 0.01 0.01 0.00 0.00 0.00 0.00 0.00 0.00 0.00 0.00 0.00 0.00 0.00 0.00 0.00 0.00 0.00 0.00 0.00 0.00 0.00 0.00 0.00 0.00 0.00 0.00 0.00 0.00 0.00 0.00 0.00 0.00 0.00
0.02 0.02 0.01 0.01 0.02 0.02 0.02 0.02 0.02 0.01 0.01 0.01 0.01 0.01 0.00 0.00 0.00 0.00 0.00 0.00 0.00 0.00 0.00 0.00 0.00 0.00 0.00 0.00 0.00 0.00 0.00 0.00 0.00 0.00 0.00 0.00 0.00 0.00 0.00 0.00 0.00 0.00 0.00 0.00
0.03 0.01 0.02 0.02 0.02 0.01 0.02 0.01 0.01 0.02 0.03 0.03 0.02 0.02 0.00 0.00 0.00 0.00 0.00 0.00 0.00 0.00 0.00 0.00 0.00 0.00 0.00 0.00 0.00 0.00 0.00 0.00 0.00 0.00 0.00 0.00 0.00 0.00 0.00 0.00 0.00 0.00 0.00 0.00
0.04 0.01 0.02 0.02 0.01 0.01 0.01 0.01 0.01 0.02 0.03 0.04 0.03 0.03 0.01 0.00 0.00 0.00 0.00 0.00 0.00 0.00 0.00 0.00 0.00 0.00 0.00 0.00 0.00 0.00 0.00 0.00 0.00 0.00 0.00 0.00 0.00 0.00 0.00 0.00 0.00 0.00 0.00 0.00
0.03 0.02 0.03 0.02 0.01 0.02 0.02 0.02 0.03 0.04 0.06 0.08 0.03 0.02 0.01 0.00 0.00 0.00 0.00 0.00 0.00 0.00 0.00 0.00 0.00 0.00 0.00 0.00 0.00 0.00 0.00 0.00 0.00 0.00 0.00 0.00 0.00 0.00 0.00 0.00 0.00 0.00 0.00 0.00
0.05 0.03 0.02 0.02 0.03 0.03 0.04 0.06 0.11 0.12 0.12 0.07 0.01 0.01 0.01 0.00 0.00 0.00 0.00 0.00 0.00 0.00 0.00 0.00 0.00 0.00 0.00 0.00 0.00 0.00 0.00 0.00 0.00 0.00 0.00 0.00 0.00 0.00 0.00 0.00 0.00 0.00 0.00 0.00
0.05 0.03 0.02 0.02 0.02 0.03 0.03 0.05 0.08 0.08 0.05 0.02 0.01 0.00 0.00 0.00 0.00 0.00 0.00 0.00 0.00 0.00 0.00 0.00 0.00 0.00 0.00 0.00 0.00 0.00 0.00 0.00 0.00 0.01 0.01 0.01 0.01 0.00 0.00 0.00 0.00 0.00 0.00 0.00
0.07 0.03 0.01 0.01 0.01 0.02 0.03 0.04 0.04 0.05 0.04 0.03 0.02 0.01 0.00 0.00 0.00 0.00 0.00 0.00 0.00 0.00 0.00 0.00 0.00 0.00 0.00 0.00 0.00 0.00 0.00 0.00 0.00 0.00 0.01 0.01 0.01 0.01 0.01 0.01 0.00 0.00 0.00 0.00
0.08 0.06 0.01 0.01 0.02 0.03 0.03 0.04 0.07 0.11 0.09 0.05 0.02 0.01 0.01 0.00 0.00 0.00 0.00 0.00 0.00 0.00 0.00 0.00 0.00 0.00 0.00 0.00 0.00 0.00 0.00 0.00 0.00 0.00 0.00 0.00 0.00 0.01 0.01 0.01 0.01 0.01 0.00 0.00
0.06 0.06 0.03 0.02 0.02 0.02 0.04 0.05 0.08 0.11 0.10 0.06 0.04 0.02 0.01 0.00 0.00 0.00 0.00 0.00 0.00 0.00 0.00 0.00 0.00 0.00 0.00 0.00 0.00 0.00 0.00 0.00 0.00 0.00 0.00 0.00 0.00 0.01 0.01 0.01 0.01 0.01 0.01 0.00
0.05 0.07 0.04 0.02 0.01 0.01 0.03 0.05 0.08 0.12 0.10 0.07 0.05 0.03 0.01 0.00 0.00 0.00 0.00 0.00 0.00 0.00 0.00 0.00 0.00 0.00 0.00 0.00 0.00 0.00 0.00 0.00 0.00 0.00 0.00 0.00 0.00 0.00 0.01 0.01 0.01 0.01 0.01 0.01
0.08 0.09 0.07 0.06 0.05 0.03 0.03 0.03 0.05 0.08 0.10 0.09 0.07 0.03 0.00 0.00 0.00 0.00 0.00 0.00 0.00 0.00 0.00 0.00 0.00 0.00 0.00 0.00 0.00 0.00 0.00 0.00 0.00 0.00 0.00 0.00 0.00 0.00 0.01 0.01 0.01 0.01 0.01 0.01
0.09 0.09 0.07 0.06 0.05 0.03 0.03 0.02 0.03 0.05 0.08 0.06 0.04 0.02 0.01 0.00 0.00 0.00 0.00 0.00 0.00 0.00 0.00 0.00 0.00 0.00 0.00 0.00 0.00 0.00 0.00 0.00 0.00 0.00 0.00 0.00 0.00 0.00 0.00 0.01 0.01 0.01 0.01 0.01
0.08 0.07 0.04 0.04 0.03 0.03 0.03 0.02 0.02 0.03 0.03 0.03 0.02 0.01 0.01 0.01 0.01 0.00 0.00 0.00 0.00 0.00 0.00 0.00 0.00 0.00 0.00 0.00 0.00 0.00 0.00 0.00 0.00 0.00 0.00 0.00 0.00 0.00 0.00 0.00 0.00 0.00 0.01 0.02
0.08 0.07 0.03 0.02 0.02 0.02 0.03 0.02 0.02 0.01 0.01 0.02 0.01 0.01 0.01 0.01 0.01 0.01 0.00 0.00 0.00 0.00 0.00 0.00 0.00 0.00 0.00 0.00 0.00 0.00 0.00 0.00 0.00 0.00 0.00 0.00 0.00 0.00 0.00 0.00 0.00 0.00 0.01 0.01
0.05 0.06 0.05 0.03 0.02 0.04 0.04 0.02 0.02 0.01 0.01 0.01 0.01 0.00 0.00 0.00 0.00 0.01 0.00 0.00 0.00 0.00 0.00 0.00 0.00 0.00 0.00 0.00 0.00 0.00 0.00 0.00 0.00 0.00 0.00 0.00 0.00 0.00 0.00 0.00 0.00 0.00 0.01 0.01
0.04 0.05 0.07 0.04 0.03 0.06 0.02 0.01 0.02 0.02 0.01 0.01 0.00 0.00 0.00 0.00 0.00 0.00 0.00 0.00 0.00 0.00 0.00 0.00 0.00 0.00 0.00 0.00 0.00 0.00 0.00 0.00 0.00 0.00 0.00 0.00 0.00 0.00 0.01 0.01 0.01 0.01 0.01 0.02
0.03 0.04 0.07 0.07 0.05 0.02 0.00 0.00 0.01 0.02 0.01 0.01 0.00 0.00 0.00 0.00 0.00 0.00 0.00 0.00 0.00 0.00 0.00 0.00 0.00 0.00 0.00 0.00 0.00 0.00 0.00 0.00 0.00 0.01 0.01 0.01 0.01 0.01 0.01 0.01 0.02 0.02 0.02 0.02
0.02 0.04 0.07 0.07 0.07 0.03 0.00 0.00 0.01 0.01 0.02 0.01 0.01 0.00 0.00 0.00 0.00 0.00 0.00 0.00 0.00 0.00 0.00 0.00 0.00 0.00 0.00 0.00 0.01 0.01 0.01 0.01 0.01 0.01 0.01 0.02 0.02 0.02 0.02 0.02 0.02 0.02 0.02 0.02
0.04 0.07 0.08 0.05 0.05 0.02 0.01 0.01 0.01 0.01 0.01 0.01 0.00 0.00 0.00 0.00 0.00 0.00 0.00 0.00 0.00 0.00 0.00 0.00 0.00 0.00 0.01 0.01 0.01 0.01 0.01 0.02 0.02 0.02 0.02 0.02 0.03 0.03 0.04 0.04 0.03 0.03 0.03 0.02
0.03 0.05 0.05 0.04 0.05 0.02 0.01 0.01 0.02 0.02 0.01 0.00 0.00 0.00 0.00 0.00 0.00 0.00 0.00 0.00 0.00 0.00 0.00 0.00 0.00 0.00 0.00 0.01 0.01 0.02 0.02 0.01 0.02 0.02 0.02 0.02 0.03 0.04 0.05 0.05 0.04 0.04 0.03 0.03
0.02 0.02 0.03 0.03 0.03 0.01 0.01 0.01 0.01 0.01 0.01 0.01 0.00 0.00 0.00 0.00 0.00 0.00 0.00 0.00 0.00 0.01 0.01 0.01 0.01 0.01 0.01 0.01 0.01 0.02 0.02 0.02 0.02 0.02 0.02 0.02 0.02 0.02 0.03 0.03 0.03 0.03 0.03 0.03
0.02 0.02 0.02 0.02 0.01 0.01 0.01 0.01 0.01 0.01 0.01 0.01 0.00 0.00 0.00 0.01 0.01 0.00 0.00 0.00 0.00 0.00 0.01 0.01 0.01 0.01 0.01 0.01 0.01 0.01 0.01 0.01 0.02 0.02 0.02 0.02 0.02 0.02 0.03 0.03 0.03 0.02 0.02 0.02
0.02 0.03 0.03 0.03 0.01 0.01 0.01 0.01 0.01 0.01 0.01 0.01 0.00 0.00 0.01 0.01 0.01 0.01 0.01 0.00 0.00 0.00 0.01 0.01 0.01 0.02 0.02 0.02 0.01 0.01 0.01 0.01 0.02 0.02 0.02 0.02 0.03 0.04 0.04 0.04 0.04 0.04 0.04 0.03
0.02 0.02 0.03 0.02 0.02 0.02 0.01 0.01 0.01 0.01 0.01 0.00 0.00 0.00 0.00 0.00 0.00 0.01 0.01 0.01 0.01 0.01 0.01 0.01 0.01 0.02 0.02 0.01 0.01 0.01 0.01 0.01 0.02 0.02 0.02 0.03 0.03 0.04 0.04 0.04 0.05 0.05 0.04 0.04
MSLP
1016.27 1016.33 1016.36 1016.39 1016.45 1016.56 1016.71 1016.90 1017.09 1017.23 1017.29 1017.23 1017.04 1016.73 1016.33 1015.87 1015.40 1014.95 1014.55 1014.19 1013.90 1013.64 1013.41 1013.20 1013.03 1012.91 1012.85 1012.90 1013.06 1013.35 1013.75 1014.23 1014.76 1015.30 1015.78 1016.18 1016.49 1016.69 1016.81 1016.88 1016.94 1017.01 1017.12 1017.30
1016.30 1016.28 1016.22 1016.18 1016.17 1016.24 1016.38 1016.59 1016.83 1017.03 1017.16 1017.17 1017.03 1016.75 1016.35 1015.86 1015.34 1014.83 1014.35 1013.92 1013.55 1013.22 1012.93 1012.67 1012.45 1012.28 1012.19 1012.20 1012.33 1012.59 1012.98 1013.47 1014.01 1014.56 1015.07 1015.50 1015.82 1016.04 1016.18 1016.26 1016.32 1016.40 1016.52 1016.71
1016.31 1016.23 1016.11 1015.99 1015.92 1015.95 1016.08 1016.31 1016.57 1016.83 1017.01 1017.06 1016.95 1016.68 1016.26 1015.74 1015.17 1014.59 1014.04 1013.55 1013.12 1012.75 1012.42 1012.13 1011.88 1011.68 1011.57 1011.55 1011.66 1011.89 1012.26 1012.72 1013.24 1013.77 1014.26 1014.69 1015.02 1015.26 1015.41 1015.52 1015.61 1015.72 1015.88 1016.09
1016.32 1016.19 1016.00 1015.83 1015.73 1015.73 1015.85 1016.08 1016.37 1016.65 1016.84 1016.91 1016.79 1016.50 1016.04 1015.47 1014.83 1014.19 1013.58 1013.03 1012.56 1012.16 1011.82 1011.53 1011.29 1011.11 1010.99 1010.97 1011.06 1011.27 1011.59 1012.00 1012.47 1012.94 1013.40 1013.79 1014.11 1014.35 1014.53 1014.68 1014.81 1014.97 1015.16 1015.40
1016.32 1016.14 1015.91 1015.71 1015.58 1015.57 1015.70 1015.93 1016.22 1016.50 1016.68 1016.71 1016.56 1016.20 1015.68 1015.03 1014.31 1013.59 1012.93 1012.34 1011.85 1011.45 1011.13 1010.88 1010.69 1010.55 1010.48 1010.48 1010.57 1010.75 1011.02 1011.37 1011.76 1012.16 1012.54 1012.88 1013.17 1013.41 1013.60 1013.77 1013.95 1014.15 1014.39 1014.66
1016.30 1016.07 1015.82 1015.59 1015.46 1015.46 1015.59 1015.82 1016.10 1016.35 1016.50 1016.47 1016.24 1015.80 1015.18 1014.43 1013.63 1012.84 1012.13 1011.51 1011.03 1010.66 1010.39 1010.22 1010.11 1010.05 1010.04 1010.09 1010.19 1010.36 1010.59 1010.87 1011.18 1011.49 1011.79 1012.06 1012.31 1012.52 1012.71 1012.91 1013.11 1013.35 1013.61 1013.89
1016.25 1015.98 1015.70 1015.47 1015.34 1015.35 1015.49 1015.72 1015.98 1016.19 1016.28 1016.17 1015.85 1015.31 1014.59 1013.75 1012.86 1012.01 1011.26 1010.64 1010.18 1009.86 1009.67 1009.59 1009.58 1009.62 1009.70 1009.82 1009.96 1010.13 1010.33 1010.55 1010.78 1011.01 1011.23 1011.44 1011.63 1011.81 1011.99 1012.18 1012.39 1012.63 1012.89 1013.16
1016.18 1015.86 1015.55 1015.32 1015.20 1015.22 1015.36 1015.59 1015.83 1015.99 1016.01 1015.82 1015.41 1014.77 1013.96 1013.04 1012.10 1011.22 1010.46 1009.85 1009.43 1009.18 1009.08 1009.09 1009.19 1009.34 1009.51 1009.69 1009.88 1010.07 1010.25 1010.44 1010.61 1010.78 1010.93 1011.08 1011.22 1011.36 1011.52 1011.69 1011.89 1012.10 1012.33 1012.55
1016.09 1015.72 1015.38 1015.13 1015.02 1015.05 1015.20 1015.42 1015.63 1015.74 1015.69 1015.43 1014.95 1014.24 1013.38 1012.42 1011.47 1010.58 1009.84 1009.27 1008.90 1008.72 1008.70 1008.81 1009.00 1009.23 1009.48 1009.72 1009.95 1010.16 1010.35 1010.52 1010.66 1010.79 1010.90 1011.01 1011.12 1011.23 1011.36 1011.49 1011.65 1011.81 1011.97 1012.13
1016.00 1015.57 1015.20 1014.94 1014.83 1014.87 1015.01 1015.21 1015.38 1015.45 1015.35 1015.04 1014.51 1013.78 1012.90 1011.96 1011.03 1010.19 1009.50 1008.99 1008.69 1008.57 1008.62 1008.79 1009.03 1009.31 1009.61 1009.89 1010.15 1010.38 1010.58 1010.74 1010.88 1011.00 1011.11 1011.20 1011.29 1011.38 1011.48 1011.58 1011.68 1011.78 1011.86 1011.93
1015.92 1015.44 1015.05 1014.78 1014.67 1014.69 1014.82 1014.99 1015.12 1015.14 1015.00 1014.65 1014.11 1013.40 1012.56 1011.68 1010.83 1010.07 1009.47 1009.04 1008.80 1008.74 1008.82 1009.01 1009.27 1009.57 1009.86 1010.15 1010.41 1010.64 1010.85 1011.03 1011.18 1011.32 1011.44 1011.55 1011.64 1011.73 1011.81 1011.87 1011.92 1011.95 1011.96 1011.94
1015.88 1015.38 1014.97 1014.70 1014.58 1014.58 1014.67 1014.79 1014.86 1014.83 1014.65 1014.29 1013.75 1013.08 1012.32 1011.54 1010.80 1010.16 1009.67 1009.33 1009.16 1009.13 1009.23 1009.40 1009.64 1009.89 1010.15 1010.41 1010.64 1010.87 1011.07 1011.27 1011.45 1011.62 1011.77 1011.91 1012.03 1012.14 1012.21 1012.26 1012.27 1012.25 1012.20 1012.11
1015.91 1015.41 1015.01 1014.74 1014.60 1014.56 1014.60 1014.64 1014.64 1014.54 1014.30 1013.92 1013.41 1012.79 1012.12 1011.46 1010.85 1010.34 1009.96 1009.72 1009.60 1009.60 1009.68 1009.82 1010.00 1010.18 1010.38 1010.57 1010.76 1010.96 1011.16 1011.36 1011.57 1011.77 1011.97 1012.16 1012.32 1012.46 1012.55 1012.61 1012.61 1012.57 1012.49 1012.37
1016.02 1015.55 1015.17 1014.90 1014.74 1014.65 1014.61 1014.56 1014.46 1014.26 1013.95 1013.54 1013.03 1012.46 1011.87 1011.32 1010.84 1010.46 1010.19 1010.03 1009.96 1009.97 1010.03 1010.12 1010.22 1010.32 1010.43 1010.55 1010.69 1010.85 1011.03 1011.24 1011.47 1011.71 1011.96 1012.20 1012.41 1012.59 1012.73 1012.82 1012.84 1012.82 1012.74 1012.63
1016.23 1015.80 1015.46 1015.19 1014.99 1014.83 1014.69 1014.52 1014.29 1013.97 1013.57 1013.10 1012.57 1012.02 1011.50 1011.03 1010.66 1010.38 1010.20 1010.11 1010.08 1010.10 1010.13 1010.17 1010.20 1010.23 1010.26 1010.31 1010.39 1010.51 1010.68 1010.89 1011.14 1011.42 1011.70 1011.99 1012.26 1012.50 1012.69 1012.83 1012.91 1012.94 1012.91 1012.85
1016.52 1016.15 1015.83 1015.55 1015.30 1015.06 1014.79 1014.49 1014.11 1013.66 1013.14 1012.58 1012.01 1011.45 1010.96 1010.55 1010.24 1010.04 1009.93 1009.88 1009.88 1009.90 1009.92 1009.91 1009.89 1009.87 1009.84 1009.85 1009.89 1009.98 1010.13 1010.35 1010.61 1010.91 1011.24 1011.57 1011.89 1012.18 1012.44 1012.66 1012.82 1012.92 1012.98 1013.00
1016.89 1016.55 1016.22 1015.91 1015.59 1015.25 1014.86 1014.41 1013.88 1013.29 1012.65 1011.99 1011.35 1010.77 1010.27 1009.88 1009.61 1009.45 1009.38 1009.36 1009.38 1009.40 1009.41 1009.39 1009.35 1009.29 1009.24 1009.22 1009.24 1009.32 1009.47 1009.69 1009.96 1010.28 1010.63 1011.00 1011.36 1011.72 1012.04 1012.34 1012.59 1012.79 1012.95 1013.07
1017.26 1016.92 1016.56 1016.19 1015.78 1015.33 1014.81 1014.22 1013.56 1012.84 1012.10 1011.35 1010.65 1010.03 1009.51 1009.12 1008.86 1008.71 1008.65 1008.66 1008.68 1008.71 1008.72 1008.70 1008.66 1008.60 1008.55 1008.53 1008.56 1008.64 1008.80 1009.02 1009.30 1009.63 1010.00 1010.38 1010.78 1011.18 1011.57 1011.94 1012.28 1012.59 1012.86 1013.08
1017.57 1017.17 1016.75 1016.29 1015.78 1015.22 1014.59 1013.89 1013.12 1012.32 1011.50 1010.70 1009.96 1009.31 1008.78 1008.39 1008.12 1007.98 1007.92 1007.93 1007.96 1007.99 1008.01 1008.00 1007.97 1007.93 1007.90 1007.90 1007.94 1008.04 1008.20 1008.43 1008.71 1009.04 1009.42 1009.82 1010.24 1010.67 1011.11 1011.54 1011.96 1012.35 1012.72 1013.05
1017.72 1017.23 1016.70 1016.13 1015.52 1014.85 1014.14 1013.37 1012.55 1011.71 1010.88 1010.07 1009.33 1008.69 1008.17 1007.79 1007.53 1007.39 1007.34 1007.34 1007.37 1007.41 1007.44 1007.44 1007.43 1007.41 1007.40 1007.41 1007.47 1007.57 1007.74 1007.97 1008.24 1008.57 1008.94 1009.34 1009.77 1010.22 1010.68 1011.16 1011.64 1012.11 1012.55 1012.96
1017.63 1017.01 1016.35 1015.66 1014.95 1014.21 1013.45 1012.66 1011.85 1011.04 1010.24 1009.49 1008.81 1008.22 1007.75 1007.40 1007.17 1007.05 1007.00 1007.01 1007.04 1007.08 1007.11 1007.11 1007.11 1007.09 1007.08 1007.10 1007.16 1007.26 1007.42 1007.63 1007.89 1008.21 1008.56 1008.95 1009.38 1009.83 1010.31 1010.81 1011.32 1011.83 1012.33 1012.81
1017.22 1016.46 1015.67 1014.88 1014.09 1013.31 1012.54 1011.78 1011.04 1010.31 1009.62 1008.97 1008.40 1007.91 1007.53 1007.24 1007.07 1006.97 1006.95 1006.96 1007.00 1007.03 1007.05 1007.04 1007.02 1006.98 1006.96 1006.95 1006.98 1007.06 1007.19 1007.37 1007.61 1007.90 1008.23 1008.61 1009.03 1009.47 1009.95 1010.46 1010.98 1011.51 1012.04 1012.56
1016.46 1015.57 1014.67 1013.80 1012.98 1012.20 1011.47 1010.80 1010.16 1009.56 1009.02 1008.52 1008.09 1007.73 1007.46 1007.27 1007.17 1007.13 1007.13 1007.16 1007.20 1007.21 1007.21 1007.17 1007.11 1007.03 1006.95 1006.89 1006.87 1006.89 1006.97 1007.12 1007.32 1007.58 1007.90 1008.26 1008.66 1009.09 1009.57 1010.06 1010.59 1011.12 1011.66 1012.20
1015.36 1014.39 1013.43 1012.54 1011.73 1011.00 1010.36 1009.79 1009.29 1008.86 1008.47 1008.14 1007.86 1007.65 1007.50 1007.42 1007.39 1007.41 1007.45 1007.50 1007.53 1007.53 1007.49 1007.40 1007.28 1007.13 1006.97 1006.84 1006.73 1006.68 1006.70 1006.79 1006.96 1007.19 1007.48 1007.82 1008.22 1008.65 1009.11 1009.60 1010.11 1010.64 1011.18 1011.73
1014.02 1013.02 1012.08 1011.22 1010.47 1009.84 1009.32 1008.89 1008.54 1008.26 1008.03 1007.85 1007.72 1007.63 1007.60 1007.61 1007.66 1007.73 1007.80 1007.86 1007.89 1007.86 1007.77 1007.62 1007.42 1007.19 1006.94 1006.70 1006.50 1006.37 1006.31 1006.35 1006.47 1006.67 1006.95 1007.29 1007.68 1008.11 1008.57 1009.06 1009.56 1010.08 1010.62 1011.18
1012.58 1011.64 1010.77 1010.02 1009.39 1008.89 1008.51 1008.23 1008.02 1007.88 1007.78 1007.71 1007.69 1007.69 1007.74 1007.81 1007.90 1008.01 1008.10 1008.16 1008.17 1008.11 1007.97 1007.75 1007.46 1007.13 1006.78 1006.44 1006.15 1005.92 1005.80 1005.77 1005.85 1006.04 1006.31 1006.66 1007.06 1007.50 1007.97 1008.47 1008.97 1009.50 1010.04 1010.61
Thickness
5533 5536 5550 5564 5570 5577 5579 5584 5590 5602 5612 5612 5616 5627 5639 5647 5653 5659 5663 5668 5675 5682 5690 5694 5696 5697 5696 5696 5696 5696 5695 5694 5691 5688 5686 5684 5683 5683 5682 5681 5679 5677 5675 5672
5515 5529 5550 5553 5557 5561 5564 5569 5578 5588 5597 5599 5603 5613 5628 5637 5646 5655 5661 5666 5671 5676 5681 5686 5689 5691 5691 5692 5692 5692 5691 5690 5689 5688 5686 5683 5681 5680 5679 5677 5676 5674 5672 5670
5508 5531 5538 5539 5543 5547 5554 5560 5568 5572 5580 5585 5587 5595 5613 5629 5639 5649 5657 5664 5668 5672 5675 5679 5682 5684 5684 5685 5687 5688 5688 5687 5686 5684 5680 5677 5674 5673 5672 5672 5672 5671 5668 5666
5499 5516 5522 5527 5534 5540 5545 5557 5559 5558 5556 5559 5570 5571 5601 5617 5628 5641 5651 5656 5662 5667 5671 5673 5675 5676 5678 5680 5681 5682 5681 5680 5679 5677 5675 5672 5670 5669 5670 5669 5667 5665 5663 5661
5492 5505 5509 5516 5530 5533 5539 5548 5547 5546 5544 5543 5553 5555 5585 5605 5618 5636 5647 5653 5657 5661 5664 5667 5669 5670 5671 5672 5672 5673 5672 5671 5671 5670 5669 5666 5665 5664 5663 5661 5659 5658 5656 5654
5482 5494 5501 5512 5521 5524 5528 5529 5529 5529 5526 5526 5549 5545 5569 5593 5618 5632 5640 5646 5650 5653 5656 5659 5660 5660 5661 5662 5662 5663 5662 5662 5661 5661 5660 5658 5657 5655 5653 5652 5651 5649 5648 5646
5471 5482 5493 5502 5503 5509 5512 5508 5503 5502 5504 5518 5545 5542 5570 5596 5613 5624 5632 5637 5641 5644 5645 5646 5647 5648 5649 5650 5651 5651 5652 5651 5651 5650 5650 5649 5648 5647 5645 5643 5641 5640 5638 5637
5458 5467 5484 5493 5497 5500 5504 5503 5499 5497 5502 5511 5526 5536 5571 5593 5604 5614 5621 5625 5629 5631 5634 5635 5637 5638 5639 5639 5639 5639 5640 5640 5640 5639 5639 5638 5638 5636 5635 5633 5632 5630 5629 5628
5452 5463 5479 5487 5494 5495 5494 5495 5502 5496 5495 5499 5509 5529 5557 5581 5590 5599 5603 5607 5612 5616 5619 5621 5623 5625 5626 5627 5627 5627 5628 5628 5627 5627 5627 5626 5626 5625 5623 5622 5621 5619 5618 5617
5445 5448 5465 5475 5482 5487 5492 5493 5487 5482 5479 5487 5502 5517 5544 5568 5576 5581 5585 5590 5595 5598 5601 5605 5607 5609 5611 5612 5612 5612 5613 5613 5613 5613 5613 5613 5612 5611 5611 5609 5608 5607 5606 5604
5438 5438 5450 5461 5469 5476 5478 5480 5482 5482 5480 5486 5492 5516 5545 5556 5562 5565 5570 5575 5579 5580 5583 5585 5588 5590 5592 5594 5595 5596 5596 5597 5597 5597 5597 5597 5597 5596 5596 5595 5594 5593 5592 5590
5431 5430 5429 5444 5461 5471 5473 5476 5475 5471 5470 5480 5492 5513 5539 5542 5546 5551 5555 5559 5561 5564 5565 5567 5570 5571 5573 5575 5577 5578 5579 5580 5581 5581 5581 5581 5581 5580 5579 5579 5578 5577 5576 5575
5426 5420 5415 5424 5437 5451 5456 5461 5465 5464 5461 5465 5474 5499 5527 5528 5532 5536 5539 5541 5543 5545 5547 5549 5551 5553 5555 5556 5558 5561 5562 5563 5564 5564 5564 5564 5563 5563 5562 5562 5561 5561 5559 5558
5422 5411 5414 5419 5431 5439 5443 5450 5455 5453 5450 5454 5468 5490 5510 5515 5516 5519 5522 5525 5525 5528 5530 5531 5533 5535 5537 5539 5541 5542 5544 5545 5546 5546 5546 5545 5545 5544 5544 5544 5543 5542 5541 5540
5409 5401 5404 5414 5423 5429 5432 5439 5444 5446 5450 5449 5466 5478 5498 5502 5502 5505 5509 5510 5511 5514 5516 5518 5519 5520 5521 5522 5524 5525 5526 5527 5528 5528 5527 5527 5526 5526 5525 5525 5524 5524 5523 5522
5396 5393 5395 5399 5412 5417 5420 5431 5437 5442 5446 5449 5457 5469 5489 5487 5488 5490 5494 5496 5497 5500 5503 5505 5505 5505 5506 5507 5508 5508 5509 5509 5509 5509 5508 5508 5507 5507 5507 5506 5505 5505 5504 5503
5384 5381 5378 5380 5395 5400 5400 5428 5433 5436 5443 5448 5451 5470 5477 5475 5478 5480 5482 5484 5486 5488 5489 5491 5491 5490 5490 5491 5492 5492 5492 5491 5491 5490 5489 5488 5488 5488 5488 5487 5486 5486 5485 5484
5377 5373 5367 5363 5369 5377 5418 5432 5433 5434 5441 5447 5453 5462 5467 5469 5470 5470 5471 5471 5473 5475 5476 5476 5476 5475 5474 5474 5474 5474 5473 5472 5472 5472 5471 5470 5470 5469 5469 5469 5468 5467 5466 5465
5377 5371 5361 5356 5358 5371 5405 5422 5424 5423 5429 5441 5445 5452 5455 5457 5453 5454 5456 5457 5460 5461 5460 5459 5458 5458 5458 5458 5457 5456 5455 5454 5454 5454 5453 5453 5453 5453 5452 5451 5450 5449 5448 5447
5372 5369 5359 5349 5354 5358 5408 5420 5422 5416 5416 5435 5436 5439 5441 5440 5436 5449 5446 5441 5442 5443 5443 5442 5441 5440 5439 5439 5439 5439 5438 5437 5437 5437 5436 5436 5436 5436 5435 5434 5433 5432 5430 5429
5357 5356 5357 5353 5351 5369 5402 5408 5409 5399 5415 5426 5425 5428 5427 5428 5433 5434 5428 5426 5426 5426 5425 5424 5423 5422 5422 5422 5422 5422 5421 5420 5419 5419 5418 5418 5418 5418 5418 5417 5416 5414 5412 5410
5353 5345 5347 5348 5354 5370 5399 5396 5398 5405 5413 5412 5412 5414 5413 5412 5411 5411 5411 5410 5409 5408 5407 5407 5406 5405 5404 5405 5406 5406 5404 5403 5401 5401 5401 5400 5400 5401 5400 5400 5399 5397 5395 5393
5357 5362 5359 5362 5372 5386 5386 5389 5394 5395 5397 5398 5398 5398 5397 5397 5397 5397 5395 5394 5393 5392 5391 5390 5388 5387 5386 5386 5389 5389 5387 5386 5385 5384 5384 5383 5383 5383 5383 5384 5383 5381 5379 5377
5352 5357 5356 5357 5368 5374 5376 5376 5379 5381 5383 5384 5385 5385 5385 5384 5384 5383 5381 5379 5378 5376 5374 5372 5370 5370 5369 5369 5370 5370 5370 5369 5369 5369 5368 5368 5367 5367 5367 5368 5368 5366 5365 5362
5347 5347 5348 5353 5363 5363 5368 5368 5368 5367 5367 5367 5368 5369 5370 5370 5369 5368 5367 5366 5364 5362 5358 5356 5355 5355 5354 5353 5353 5353 5353 5353 5353 5353 5353 5353 5352 5351 5351 5352 5351 5350 5350 5348
5343 5342 5343 5353 5357 5353 5361 5359 5356 5355 5355 5355 5354 5355 5356 5356 5356 5354 5353 5351 5349 5346 5343 5340 5338 5338 5337 5337 5337 5337 5337 5337 5337 5338 5338 5337 5336 5336 5336 5335 5334 5334 5333 5332